Time,TemperatureF,DewpointF,PressureIn,WindDirection,WindDirectionDegrees,WindSpeedMPH,WindSpeedGustMPH,Humidity,HourlyPrecipIn,Conditions,Clouds,dailyrainin,SoftwareType,DateUTC
2013-09-16 00:01:00,63.5,57.6,0.00,West,279,0.0,0.0,81,0.00,,---,0.00,VWS V13.01,2013-09-16 04:01:00,
2013-09-16 00:03:00,63.3,57.4,0.00,West,279,0.0,0.0,81,0.00,,---,0.00,VWS V13.01,2013-09-16 04:03:00,
2013-09-16 00:08:00,63.3,57.4,0.00,West,279,0.0,0.0,81,0.00,,---,0.00,VWS V13.01,2013-09-16 04:08:00,
2013-09-16 00:13:00,63.1,57.2,0.00,West,279,0.0,0.0,81,0.00,,---,0.00,VWS V13.01,2013-09-16 04:13:00,
2013-09-16 00:18:00,63.1,57.2,0.00,West,279,0.0,0.0,81,0.00,,---,0.00,VWS V13.01,2013-09-16 04:18:00,
2013-09-16 00:23:00,63.0,57.0,0.00,West,279,0.0,0.0,81,0.00,,---,0.00,VWS V13.01,2013-09-16 04:23:00,
2013-09-16 00:28:00,63.0,57.0,0.00,West,279,0.0,0.0,81,0.00,,---,0.00,VWS V13.01,2013-09-16 04:28:00,
2013-09-16 00:33:00,62.8,56.9,0.00,West,279,0.0,0.0,81,0.00,,---,0.00,VWS V13.01,2013-09-16 04:33:00,
2013-09-16 00:38:00,62.8,57.2,0.00,West,279,0.0,0.0,82,0.00,,---,0.00,VWS V13.01,2013-09-16 04:38:00,
2013-09-16 00:43:00,62.8,57.2,0.00,West,279,0.0,0.0,82,0.00,,---,0.00,VWS V13.01,2013-09-16 04:43:00,
2013-09-16 00:48:00,62.8,57.2,0.00,West,279,0.0,0.0,82,0.00,,---,0.00,VWS V13.01,2013-09-16 04:48:00,
2013-09-16 00:53:00,62.6,57.0,0.00,West,279,0.0,0.0,82,0.00,,---,0.00,VWS V13.01,2013-09-16 04:53:00,
2013-09-16 00:58:00,62.6,57.0,0.00,West,279,0.0,0.0,82,0.00,,---,0.00,VWS V13.01,2013-09-16 04:58:00,
2013-09-16 01:04:00,62.4,56.9,0.00,West,279,0.0,0.0,82,0.00,,---,0.00,VWS V13.01,2013-09-16 05:04:00,
2013-09-16 01:09:00,62.2,56.7,0.00,West,279,0.0,0.0,82,0.00,,---,0.00,VWS V13.01,2013-09-16 05:09:00,
2013-09-16 01:14:00,62.2,56.7,0.00,West,279,0.0,0.0,82,0.00,,---,0.00,VWS V13.01,2013-09-16 05:14:00,
2013-09-16 01:19:00,62.2,56.7,0.00,West,279,0.0,0.0,82,0.00,,---,0.00,VWS V13.01,2013-09-16 05:19:00,
2013-09-16 01:24:00,62.1,56.8,0.00,West,279,0.0,0.0,83,0.00,,---,0.00,VWS V13.01,2013-09-16 05:24:00,
2013-09-16 01:29:00,62.1,56.8,0.00,West,279,0.0,0.0,83,0.00,,---,0.00,VWS V13.01,2013-09-16 05:29:00,
2013-09-16 01:34:00,61.9,56.7,0.00,West,279,0.0,0.0,83,0.00,,---,0.00,VWS V13.01,2013-09-16 05:34:00,
2013-09-16 01:39:00,61.9,56.7,0.00,West,279,0.0,0.0,83,0.00,,---,0.00,VWS V13.01,2013-09-16 05:39:00,
2013-09-16 01:44:00,61.7,56.5,0.00,West,279,0.0,0.0,83,0.00,,---,0.00,VWS V13.01,2013-09-16 05:44:00,
2013-09-16 01:49:00,61.7,56.5,0.00,West,279,0.0,0.0,83,0.00,,---,0.00,VWS V13.01,2013-09-16 05:49:00,
2013-09-16 01:54:00,61.7,56.5,0.00,West,279,0.0,0.0,83,0.00,,---,0.00,VWS V13.01,2013-09-16 05:54:00,
2013-09-16 01:59:00,61.5,56.3,0.00,West,279,0.0,0.0,83,0.00,,---,0.00,VWS V13.01,2013-09-16 05:59:00,
2013-09-16 02:04:00,61.5,56.3,0.00,West,279,0.0,0.0,83,0.00,,---,0.00,VWS V13.01,2013-09-16 06:04:00,
2013-09-16 02:09:00,61.3,56.1,0.00,West,279,0.0,0.0,83,0.00,,---,0.00,VWS V13.01,2013-09-16 06:09:00,
2013-09-16 02:14:00,61.3,56.1,0.00,West,279,0.0,0.0,83,0.00,,---,0.00,VWS V13.01,2013-09-16 06:14:00,
2013-09-16 02:19:00,61.3,56.1,0.00,West,279,0.0,0.0,83,0.00,,---,0.00,VWS V13.01,2013-09-16 06:19:00,
2013-09-16 02:24:00,61.3,56.1,0.00,West,279,0.0,0.0,83,0.00,,---,0.00,VWS V13.01,2013-09-16 06:24:00,
2013-09-16 02:29:00,61.2,56.0,0.00,West,279,0.0,0.0,83,0.00,,---,0.00,VWS V13.01,2013-09-16 06:29:00,
2013-09-16 02:34:00,61.0,55.8,0.00,West,279,0.0,0.0,83,0.00,,---,0.00,VWS V13.01,2013-09-16 06:34:00,
2013-09-16 02:39:00,61.0,56.1,0.00,West,279,0.0,0.0,84,0.00,,---,0.00,VWS V13.01,2013-09-16 06:39:00,
2013-09-16 02:44:00,61.0,56.1,0.00,West,279,0.0,0.0,84,0.00,,---,0.00,VWS V13.01,2013-09-16 06:44:00,
2013-09-16 02:49:00,60.8,55.9,0.00,West,279,0.0,0.0,84,0.00,,---,0.00,VWS V13.01,2013-09-16 06:49:00,
2013-09-16 02:54:00,60.8,55.9,0.00,West,279,0.0,0.0,84,0.00,,---,0.00,VWS V13.01,2013-09-16 06:54:00,
2013-09-16 02:59:00,60.6,55.8,0.00,West,279,0.0,0.0,84,0.00,,---,0.00,VWS V13.01,2013-09-16 06:59:00,
2013-09-16 03:04:00,60.6,55.8,0.00,West,279,0.0,0.0,84,0.00,,---,0.00,VWS V13.01,2013-09-16 07:04:00,
2013-09-16 03:09:00,60.6,55.8,0.00,West,279,0.0,0.0,84,0.00,,---,0.00,VWS V13.01,2013-09-16 07:09:00,
2013-09-16 03:14:00,60.6,55.8,0.00,West,279,0.0,0.0,84,0.00,,---,0.00,VWS V13.01,2013-09-16 07:14:00,
2013-09-16 03:19:00,60.4,55.6,0.00,West,279,0.0,0.0,84,0.00,,---,0.00,VWS V13.01,2013-09-16 07:19:00,
2013-09-16 03:24:00,60.4,55.6,0.00,West,279,0.0,0.0,84,0.00,,---,0.00,VWS V13.01,2013-09-16 07:24:00,
2013-09-16 03:30:00,60.3,55.4,0.00,West,279,0.0,0.0,84,0.00,,---,0.00,VWS V13.01,2013-09-16 07:30:00,
2013-09-16 03:35:00,60.3,55.4,0.00,West,279,0.0,0.0,84,0.00,,---,0.00,VWS V13.01,2013-09-16 07:35:00,
2013-09-16 03:40:00,60.1,55.2,0.00,West,279,0.0,0.0,84,0.00,,---,0.00,VWS V13.01,2013-09-16 07:40:00,
2013-09-16 03:45:00,60.1,55.2,0.00,West,279,0.0,0.0,84,0.00,,---,0.00,VWS V13.01,2013-09-16 07:45:00,
2013-09-16 03:50:00,60.1,55.6,0.00,West,279,0.0,0.0,85,0.00,,---,0.00,VWS V13.01,2013-09-16 07:50:00,
2013-09-16 03:55:00,60.1,55.6,0.00,West,279,0.0,0.0,85,0.00,,---,0.00,VWS V13.01,2013-09-16 07:55:00,
2013-09-16 04:00:00,60.1,55.6,0.00,West,279,0.0,0.0,85,0.00,,---,0.00,VWS V13.01,2013-09-16 08:00:00,
2013-09-16 04:05:00,59.9,55.4,0.00,West,279,0.0,0.0,85,0.00,,---,0.00,VWS V13.01,2013-09-16 08:05:00,
2013-09-16 04:10:00,59.9,55.4,0.00,West,279,0.0,0.0,85,0.00,,---,0.00,VWS V13.01,2013-09-16 08:10:00,
2013-09-16 04:16:00,59.7,55.2,0.00,West,279,0.0,0.0,85,0.00,,---,0.00,VWS V13.01,2013-09-16 08:16:00,
2013-09-16 04:21:00,59.7,55.2,0.00,West,279,0.0,0.0,85,0.00,,---,0.00,VWS V13.01,2013-09-16 08:21:00,
2013-09-16 04:26:00,59.5,55.0,0.00,West,279,0.0,0.0,85,0.00,,---,0.00,VWS V13.01,2013-09-16 08:26:00,
2013-09-16 04:31:00,59.5,55.0,0.00,West,279,0.0,0.0,85,0.00,,---,0.00,VWS V13.01,2013-09-16 08:31:00,
2013-09-16 04:36:00,59.4,54.9,0.00,West,279,0.0,0.0,85,0.00,,---,0.00,VWS V13.01,2013-09-16 08:36:00,
2013-09-16 04:41:00,59.4,54.9,0.00,West,279,0.0,0.0,85,0.00,,---,0.00,VWS V13.01,2013-09-16 08:41:00,
2013-09-16 04:46:00,59.2,54.7,0.00,West,279,0.0,0.0,85,0.00,,---,0.00,VWS V13.01,2013-09-16 08:46:00,
2013-09-16 04:51:00,59.2,54.7,0.00,West,279,0.0,0.0,85,0.00,,---,0.00,VWS V13.01,2013-09-16 08:51:00,
2013-09-16 04:57:00,59.2,54.7,0.00,West,279,0.0,0.0,85,0.00,,---,0.00,VWS V13.01,2013-09-16 08:57:00,
2013-09-16 05:02:00,59.0,54.5,0.00,West,279,0.0,0.0,85,0.00,,---,0.00,VWS V13.01,2013-09-16 09:02:00,
2013-09-16 05:07:00,59.2,55.0,0.00,West,279,0.0,0.0,86,0.00,,---,0.00,VWS V13.01,2013-09-16 09:07:00,
2013-09-16 05:12:00,59.2,55.0,0.00,West,279,0.0,0.0,86,0.00,,---,0.00,VWS V13.01,2013-09-16 09:12:00,
2013-09-16 05:17:00,59.2,55.0,0.00,West,279,0.0,0.0,86,0.00,,---,0.00,VWS V13.01,2013-09-16 09:17:00,
2013-09-16 05:22:00,59.0,54.8,0.00,West,279,0.0,0.0,86,0.00,,---,0.00,VWS V13.01,2013-09-16 09:22:00,
2013-09-16 05:27:00,59.2,55.3,0.00,West,279,0.0,0.0,87,0.00,,---,0.00,VWS V13.01,2013-09-16 09:27:00,
2013-09-16 05:32:00,59.2,55.3,0.00,West,279,0.0,0.0,87,0.00,,---,0.00,VWS V13.01,2013-09-16 09:32:00,
2013-09-16 05:37:00,59.2,55.3,0.00,West,279,0.0,0.0,87,0.00,,---,0.00,VWS V13.01,2013-09-16 09:37:00,
2013-09-16 05:43:00,59.2,55.3,0.00,West,279,0.0,0.0,87,0.00,,---,0.00,VWS V13.01,2013-09-16 09:43:00,
2013-09-16 05:48:00,59.0,55.1,0.00,West,279,0.0,0.0,87,0.00,,---,0.00,VWS V13.01,2013-09-16 09:48:00,
2013-09-16 05:53:00,59.0,55.1,0.00,West,279,0.0,0.0,87,0.00,,---,0.00,VWS V13.01,2013-09-16 09:53:00,
2013-09-16 05:58:00,59.0,55.1,0.00,West,279,0.0,0.0,87,0.00,,---,0.00,VWS V13.01,2013-09-16 09:58:00,
2013-09-16 06:03:00,59.0,55.1,0.00,West,279,0.0,0.0,87,0.00,,---,0.00,VWS V13.01,2013-09-16 10:03:00,
2013-09-16 06:08:00,59.0,55.1,0.00,West,279,0.0,0.0,87,0.00,,---,0.00,VWS V13.01,2013-09-16 10:08:00,
2013-09-16 06:13:00,59.0,55.5,0.00,West,279,0.0,0.0,88,0.00,,---,0.00,VWS V13.01,2013-09-16 10:13:00,
2013-09-16 06:18:00,59.0,55.5,0.00,West,279,0.0,0.0,88,0.00,,---,0.00,VWS V13.01,2013-09-16 10:18:00,
2013-09-16 06:23:00,59.0,55.5,0.00,West,279,0.0,0.0,88,0.00,,---,0.00,VWS V13.01,2013-09-16 10:23:00,
2013-09-16 06:28:00,58.8,55.3,0.00,West,279,0.0,0.0,88,0.00,,---,0.00,VWS V13.01,2013-09-16 10:28:00,
2013-09-16 06:33:00,58.8,55.3,0.00,West,279,0.0,0.0,88,0.00,,---,0.00,VWS V13.01,2013-09-16 10:33:00,
2013-09-16 06:38:00,58.6,55.1,0.00,West,279,0.0,0.0,88,0.00,,---,0.00,VWS V13.01,2013-09-16 10:38:00,
2013-09-16 06:44:00,58.6,55.1,0.00,West,279,0.0,0.0,88,0.00,,---,0.00,VWS V13.01,2013-09-16 10:44:00,
2013-09-16 06:49:00,58.6,55.1,0.00,West,279,0.0,0.0,88,0.00,,---,0.00,VWS V13.01,2013-09-16 10:49:00,
2013-09-16 06:54:00,58.6,55.1,0.00,West,279,0.0,0.0,88,0.00,,---,0.00,VWS V13.01,2013-09-16 10:54:00,
2013-09-16 06:59:00,58.6,55.1,0.00,West,279,0.0,0.0,88,0.00,,---,0.00,VWS V13.01,2013-09-16 10:59:00,
2013-09-16 07:04:00,58.6,55.1,0.00,West,279,0.0,0.0,88,0.00,,---,0.00,VWS V13.01,2013-09-16 11:04:00,
2013-09-16 07:09:00,58.6,55.1,0.00,West,279,0.0,0.0,88,0.00,,---,0.00,VWS V13.01,2013-09-16 11:09:00,
2013-09-16 07:14:00,58.5,54.9,0.00,West,279,0.0,0.0,88,0.00,,---,0.00,VWS V13.01,2013-09-16 11:14:00,
2013-09-16 07:20:00,58.5,54.9,0.00,West,279,0.0,0.0,88,0.00,,---,0.00,VWS V13.01,2013-09-16 11:20:00,
2013-09-16 07:25:00,58.5,54.9,0.00,West,279,0.0,0.0,88,0.00,,---,0.00,VWS V13.01,2013-09-16 11:25:00,
2013-09-16 07:30:00,58.3,54.8,0.00,West,279,0.0,0.0,88,0.00,,---,0.00,VWS V13.01,2013-09-16 11:30:00,
2013-09-16 07:35:00,58.3,54.8,0.00,West,279,0.0,0.0,88,0.00,,---,0.00,VWS V13.01,2013-09-16 11:35:00,
2013-09-16 07:40:00,58.5,54.9,0.00,West,279,0.0,0.0,88,0.00,,---,0.00,VWS V13.01,2013-09-16 11:40:00,
2013-09-16 07:45:00,58.5,54.9,0.00,West,279,0.0,0.0,88,0.00,,---,0.00,VWS V13.01,2013-09-16 11:45:00,
2013-09-16 07:50:00,58.6,55.4,0.00,West,279,0.0,0.0,89,0.00,,---,0.00,VWS V13.01,2013-09-16 11:50:00,
2013-09-16 07:55:00,58.6,55.4,0.00,West,280,0.0,0.0,89,0.00,,---,0.00,VWS V13.01,2013-09-16 11:55:00,
2013-09-16 08:01:00,58.6,55.4,0.00,West,279,0.0,0.0,89,0.00,,---,0.00,VWS V13.01,2013-09-16 12:01:00,
2013-09-16 08:05:00,58.6,55.4,0.00,West,279,0.0,0.0,89,0.00,,---,0.00,VWS V13.01,2013-09-16 12:05:00,
2013-09-16 08:11:00,58.8,55.6,0.00,West,279,0.0,0.0,89,0.00,,---,0.00,VWS V13.01,2013-09-16 12:11:00,
2013-09-16 08:16:00,58.8,55.6,0.00,West,279,0.0,0.0,89,0.00,,---,0.00,VWS V13.01,2013-09-16 12:16:00,
2013-09-16 08:21:00,58.8,55.6,0.00,West,279,0.0,0.0,89,0.00,,---,0.00,VWS V13.01,2013-09-16 12:21:00,
2013-09-16 08:26:00,58.8,55.6,0.00,West,280,0.0,0.0,89,0.00,,---,0.00,VWS V13.01,2013-09-16 12:26:00,
2013-09-16 08:31:00,59.2,56.0,0.00,West,279,0.0,0.0,89,0.00,,---,0.00,VWS V13.01,2013-09-16 12:31:00,
2013-09-16 08:36:00,59.4,56.1,0.00,West,279,0.0,0.0,89,0.00,,---,0.00,VWS V13.01,2013-09-16 12:36:00,
2013-09-16 08:41:00,59.7,56.5,0.00,West,279,0.0,0.0,89,0.00,,---,0.00,VWS V13.01,2013-09-16 12:41:00,
2013-09-16 08:46:00,60.3,57.3,0.00,WNW,283,0.0,0.0,90,0.00,,---,0.00,VWS V13.01,2013-09-16 12:46:00,
2013-09-16 08:51:00,60.6,57.7,0.00,WNW,284,0.0,0.0,90,0.00,,---,0.00,VWS V13.01,2013-09-16 12:51:00,
2013-09-16 08:57:00,61.2,58.2,0.00,WNW,284,0.0,0.0,90,0.00,,---,0.00,VWS V13.01,2013-09-16 12:57:00,
2013-09-16 09:02:00,61.7,58.7,0.00,WNW,284,0.0,0.0,90,0.00,,---,0.00,VWS V13.01,2013-09-16 13:02:00,
2013-09-16 09:07:00,62.4,59.8,0.00,WNW,284,0.0,0.0,91,0.00,,---,0.00,VWS V13.01,2013-09-16 13:07:00,
2013-09-16 09:12:00,63.0,60.0,0.00,WNW,284,0.0,0.0,90,0.00,,---,0.00,VWS V13.01,2013-09-16 13:12:00,
2013-09-16 09:17:00,63.7,61.0,0.00,WNW,284,0.0,0.0,91,0.00,,---,0.00,VWS V13.01,2013-09-16 13:17:00,
2013-09-16 09:22:00,64.4,61.7,0.00,WNW,284,0.0,0.0,91,0.00,,---,0.00,VWS V13.01,2013-09-16 13:22:00,
2013-09-16 09:27:00,65.3,62.6,0.00,WNW,284,0.0,0.0,91,0.00,,---,0.00,VWS V13.01,2013-09-16 13:27:00,
2013-09-16 09:32:00,66.0,63.0,0.00,WNW,284,0.0,0.0,90,0.00,,---,0.00,VWS V13.01,2013-09-16 13:32:00,
2013-09-16 09:37:00,66.6,63.5,0.00,WNW,284,0.0,0.0,90,0.00,,---,0.00,VWS V13.01,2013-09-16 13:37:00,
2013-09-16 09:42:00,67.3,63.9,0.00,SW,218,0.0,0.0,89,0.00,,---,0.00,VWS V13.01,2013-09-16 13:42:00,
2013-09-16 09:47:00,68.0,64.3,0.00,South,185,0.0,0.0,88,0.00,,---,0.00,VWS V13.01,2013-09-16 13:47:00,
2013-09-16 09:52:00,68.7,64.4,0.00,SSW,203,0.0,2.2,86,0.00,,---,0.00,VWS V13.01,2013-09-16 13:52:00,
2013-09-16 09:57:00,69.3,64.2,0.00,SSE,150,0.0,2.2,84,0.00,,---,0.00,VWS V13.01,2013-09-16 13:57:00,
2013-09-16 10:03:00,70.0,63.5,0.00,WNW,291,0.0,0.0,80,0.00,,---,0.00,VWS V13.01,2013-09-16 14:03:00,
2013-09-16 10:08:00,70.5,63.7,0.00,SSW,209,2.7,4.0,79,0.00,,---,0.00,VWS V13.01,2013-09-16 14:08:00,
2013-09-16 10:13:00,70.7,63.1,0.00,SE,139,0.0,4.0,77,0.00,,---,0.00,VWS V13.01,2013-09-16 14:13:00,
2013-09-16 10:18:00,70.9,62.6,0.00,East,89,0.0,4.0,75,0.00,,---,0.00,VWS V13.01,2013-09-16 14:18:00,
2013-09-16 10:23:00,71.4,62.7,0.00,ESE,109,3.1,3.1,74,0.00,,---,0.00,VWS V13.01,2013-09-16 14:23:00,
2013-09-16 10:28:00,72.1,63.0,0.00,SSW,193,0.0,3.1,73,0.00,,---,0.00,VWS V13.01,2013-09-16 14:28:00,
2013-09-16 10:33:00,72.7,62.7,0.00,SW,231,2.2,3.1,71,0.00,,---,0.00,VWS V13.01,2013-09-16 14:33:00,
2013-09-16 10:38:00,73.4,63.0,0.00,SW,219,0.0,3.1,70,0.00,,---,0.00,VWS V13.01,2013-09-16 14:38:00,
2013-09-16 10:43:00,74.1,63.3,0.00,South,172,0.0,2.7,69,0.00,,---,0.00,VWS V13.01,2013-09-16 14:43:00,
2013-09-16 10:49:00,75.0,62.5,0.00,SW,214,3.1,4.0,65,0.00,,---,0.00,VWS V13.01,2013-09-16 14:49:00,
2013-09-16 10:54:00,75.7,63.2,0.00,South,181,0.0,4.0,65,0.00,,---,0.00,VWS V13.01,2013-09-16 14:54:00,
2013-09-16 10:59:00,76.5,62.9,0.00,South,172,3.1,4.0,63,0.00,,---,0.00,VWS V13.01,2013-09-16 14:59:00,
2013-09-16 11:04:00,77.2,62.7,0.00,SSE,166,4.9,4.9,61,0.00,,---,0.00,VWS V13.01,2013-09-16 15:04:00,
2013-09-16 11:09:00,77.9,62.4,0.00,SSW,210,3.6,4.9,59,0.00,,---,0.00,VWS V13.01,2013-09-16 15:09:00,
2013-09-16 11:14:00,78.4,60.4,0.00,SE,144,0.0,4.9,54,0.00,,---,0.00,VWS V13.01,2013-09-16 15:14:00,
2013-09-16 11:19:00,78.6,60.1,0.00,WNW,293,0.0,4.9,53,0.00,,---,0.00,VWS V13.01,2013-09-16 15:19:00,
2013-09-16 11:24:00,79.2,60.6,0.00,SSE,152,0.0,3.1,53,0.00,,---,0.00,VWS V13.01,2013-09-16 15:24:00,
2013-09-16 11:29:00,79.7,53.9,0.00,NE,56,0.0,3.1,41,0.00,,---,0.00,VWS V13.01,2013-09-16 15:29:00,
2013-09-16 11:35:00,79.9,55.4,0.00,NNW,336,3.6,5.4,43,0.00,,---,0.00,VWS V13.01,2013-09-16 15:35:00,
2013-09-16 11:40:00,79.3,54.9,0.00,WNW,287,3.1,5.4,43,0.00,,---,0.00,VWS V13.01,2013-09-16 15:40:00,
2013-09-16 11:45:00,79.2,55.4,0.00,NNW,335,5.8,5.8,44,0.00,,---,0.00,VWS V13.01,2013-09-16 15:45:00,
2013-09-16 11:50:00,80.1,56.2,0.00,NNW,327,4.0,5.8,44,0.00,,---,0.00,VWS V13.01,2013-09-16 15:50:00,
2013-09-16 11:55:00,81.0,54.4,0.00,NNW,343,0.0,5.8,40,0.00,,---,0.00,VWS V13.01,2013-09-16 15:55:00,
2013-09-16 12:00:00,81.5,55.5,0.00,South,191,0.0,0.0,41,0.00,,---,0.00,VWS V13.01,2013-09-16 16:00:00,
2013-09-16 12:05:00,81.5,54.2,0.00,NNE,20,0.0,3.1,39,0.00,,---,0.00,VWS V13.01,2013-09-16 16:05:00,
2013-09-16 12:10:00,81.5,53.5,0.00,NNW,348,0.0,3.1,38,0.00,,---,0.00,VWS V13.01,2013-09-16 16:10:00,
2013-09-16 12:15:00,82.4,55.0,0.00,NNW,340,3.1,4.0,39,0.00,,---,0.00,VWS V13.01,2013-09-16 16:15:00,
2013-09-16 12:21:00,82.8,53.9,0.00,NNW,338,2.7,2.7,37,0.00,,---,0.00,VWS V13.01,2013-09-16 16:21:00,
2013-09-16 12:26:00,83.3,54.3,0.00,WSW,257,0.0,3.6,37,0.00,,---,0.00,VWS V13.01,2013-09-16 16:26:00,
2013-09-16 12:31:00,82.9,53.3,0.00,NE,38,3.1,3.6,36,0.00,,---,0.00,VWS V13.01,2013-09-16 16:31:00,
2013-09-16 12:36:00,83.5,54.5,0.00,NW,308,0.0,3.6,37,0.00,,---,0.00,VWS V13.01,2013-09-16 16:36:00,
2013-09-16 12:41:00,83.5,55.9,0.00,NNW,334,2.7,4.0,39,0.00,,---,0.00,VWS V13.01,2013-09-16 16:41:00,
2013-09-16 12:46:00,83.1,53.4,0.00,NNW,340,2.2,4.0,36,0.00,,---,0.00,VWS V13.01,2013-09-16 16:46:00,
2013-09-16 12:51:00,82.8,53.1,0.00,NNW,346,3.1,4.0,36,0.00,,---,0.00,VWS V13.01,2013-09-16 16:51:00,
2013-09-16 12:56:00,82.4,53.5,0.00,North,353,0.0,4.0,37,0.00,,---,0.00,VWS V13.01,2013-09-16 16:56:00,
2013-09-16 13:01:00,81.9,52.3,0.00,North,357,0.0,3.1,36,0.00,,---,0.00,VWS V13.01,2013-09-16 17:01:00,
2013-09-16 13:06:00,81.5,53.5,0.00,North,353,0.0,3.6,38,0.00,,---,0.00,VWS V13.01,2013-09-16 17:06:00,
2013-09-16 13:12:00,81.0,53.0,0.00,North,5,0.0,4.0,38,0.00,,---,0.00,VWS V13.01,2013-09-16 17:12:00,
2013-09-16 13:17:00,80.6,53.4,0.00,North,0,0.0,4.0,39,0.00,,---,0.00,VWS V13.01,2013-09-16 17:17:00,
2013-09-16 13:22:00,80.6,54.1,0.00,NNW,343,0.0,0.0,40,0.00,,---,0.00,VWS V13.01,2013-09-16 17:22:00,
2013-09-16 13:27:00,80.2,54.4,0.00,NNE,28,2.7,2.7,41,0.00,,---,0.00,VWS V13.01,2013-09-16 17:27:00,
2013-09-16 13:32:00,80.6,54.8,0.00,NNE,13,0.0,3.1,41,0.00,,---,0.00,VWS V13.01,2013-09-16 17:32:00,
2013-09-16 13:37:00,82.0,55.4,0.00,NNW,342,4.0,4.0,40,0.00,,---,0.00,VWS V13.01,2013-09-16 17:37:00,
2013-09-16 13:42:00,82.9,53.3,0.00,NNE,26,2.2,4.0,36,0.00,,---,0.00,VWS V13.01,2013-09-16 17:42:00,
2013-09-16 13:47:00,81.9,53.1,0.00,NNW,345,3.6,4.0,37,0.00,,---,0.00,VWS V13.01,2013-09-16 17:47:00,
2013-09-16 13:52:00,81.0,53.7,0.00,NW,325,0.0,4.0,39,0.00,,---,0.00,VWS V13.01,2013-09-16 17:52:00,
2013-09-16 13:57:00,80.4,53.9,0.00,NW,325,0.0,4.0,40,0.00,,---,0.00,VWS V13.01,2013-09-16 17:57:00,
2013-09-16 14:02:00,79.9,54.8,0.00,North,353,3.1,3.1,42,0.00,,---,0.00,VWS V13.01,2013-09-16 18:02:00,
2013-09-16 14:07:00,79.5,54.4,0.00,North,357,2.7,4.9,42,0.00,,---,0.00,VWS V13.01,2013-09-16 18:07:00,
2013-09-16 14:12:00,79.9,54.8,0.00,NNE,21,3.1,4.9,42,0.00,,---,0.00,VWS V13.01,2013-09-16 18:12:00,
2013-09-16 14:17:00,79.7,54.6,0.00,NNE,15,2.7,4.9,42,0.00,,---,0.00,VWS V13.01,2013-09-16 18:17:00,
2013-09-16 14:22:00,79.3,54.3,0.00,North,2,0.0,3.6,42,0.00,,---,0.00,VWS V13.01,2013-09-16 18:22:00,
2013-09-16 14:27:00,79.2,54.1,0.00,North,349,2.2,3.6,42,0.00,,---,0.00,VWS V13.01,2013-09-16 18:27:00,
2013-09-16 14:32:00,78.8,53.1,0.00,North,353,0.0,4.0,41,0.00,,---,0.00,VWS V13.01,2013-09-16 18:32:00,
2013-09-16 14:37:00,78.6,53.6,0.00,North,5,0.0,4.9,42,0.00,,---,0.00,VWS V13.01,2013-09-16 18:37:00,
2013-09-16 14:42:00,78.6,53.6,0.00,North,3,0.0,2.2,42,0.00,,---,0.00,VWS V13.01,2013-09-16 18:42:00,
2013-09-16 14:47:00,78.8,54.4,0.00,NNE,17,2.2,4.0,43,0.00,,---,0.00,VWS V13.01,2013-09-16 18:47:00,
2013-09-16 14:53:00,79.0,53.3,0.00,North,5,0.0,4.0,41,0.00,,---,0.00,VWS V13.01,2013-09-16 18:53:00,
2013-09-16 14:58:00,79.0,53.3,0.00,NE,39,0.0,5.8,41,0.00,,---,0.00,VWS V13.01,2013-09-16 18:58:00,
2013-09-16 15:03:00,79.9,54.8,0.00,NNW,342,2.7,4.0,42,0.00,,---,0.00,VWS V13.01,2013-09-16 19:03:00,
2013-09-16 15:08:00,80.4,53.9,0.00,NE,48,3.6,4.9,40,0.00,,---,0.00,VWS V13.01,2013-09-16 19:08:00,
2013-09-16 15:13:00,80.1,53.6,0.00,North,8,0.0,4.9,40,0.00,,---,0.00,VWS V13.01,2013-09-16 19:13:00,
2013-09-16 15:18:00,79.5,53.1,0.00,NNE,29,0.0,5.4,40,0.00,,---,0.00,VWS V13.01,2013-09-16 19:18:00,
2013-09-16 15:23:00,79.0,52.6,0.00,NNE,31,0.0,4.9,40,0.00,,---,0.00,VWS V13.01,2013-09-16 19:23:00,
2013-09-16 15:28:00,78.8,53.8,0.00,NE,34,0.0,4.9,42,0.00,,---,0.00,VWS V13.01,2013-09-16 19:28:00,
2013-09-16 15:33:00,79.7,55.2,0.00,North,0,0.0,4.9,43,0.00,,---,0.00,VWS V13.01,2013-09-16 19:33:00,
2013-09-16 15:38:00,80.8,55.6,0.00,NNE,24,0.0,4.9,42,0.00,,---,0.00,VWS V13.01,2013-09-16 19:38:00,
2013-09-16 15:43:00,80.4,54.6,0.00,North,6,2.2,3.6,41,0.00,,---,0.00,VWS V13.01,2013-09-16 19:43:00,
2013-09-16 15:48:00,80.1,53.6,0.00,NNE,28,5.4,6.3,40,0.00,,---,0.00,VWS V13.01,2013-09-16 19:48:00,
2013-09-16 15:53:00,80.2,54.4,0.00,NNE,27,0.0,6.3,41,0.00,,---,0.00,VWS V13.01,2013-09-16 19:53:00,
2013-09-16 15:58:00,80.8,54.9,0.00,NNW,337,0.0,6.3,41,0.00,,---,0.00,VWS V13.01,2013-09-16 19:58:00,
2013-09-16 16:03:00,81.1,54.5,0.00,North,4,0.0,2.7,40,0.00,,---,0.00,VWS V13.01,2013-09-16 20:03:00,
2013-09-16 16:08:00,80.6,52.7,0.00,NNE,12,3.6,4.0,38,0.00,,---,0.00,VWS V13.01,2013-09-16 20:08:00,
2013-09-16 16:13:00,80.8,54.2,0.00,North,8,2.2,4.0,40,0.00,,---,0.00,VWS V13.01,2013-09-16 20:13:00,
2013-09-16 16:18:00,81.0,54.4,0.00,NE,35,2.7,4.0,40,0.00,,---,0.00,VWS V13.01,2013-09-16 20:18:00,
2013-09-16 16:23:00,80.2,53.1,0.00,North,0,3.1,4.0,39,0.00,,---,0.00,VWS V13.01,2013-09-16 20:23:00,
2013-09-16 16:28:00,79.7,52.6,0.00,NNW,335,2.2,4.9,39,0.00,,---,0.00,VWS V13.01,2013-09-16 20:28:00,
2013-09-16 16:33:00,79.3,52.3,0.00,NNE,16,2.2,4.9,39,0.00,,---,0.00,VWS V13.01,2013-09-16 20:33:00,
2013-09-16 16:38:00,78.8,52.5,0.00,North,2,3.1,4.9,40,0.00,,---,0.00,VWS V13.01,2013-09-16 20:38:00,
2013-09-16 16:43:00,78.8,52.5,0.00,NNW,348,4.0,4.0,40,0.00,,---,0.00,VWS V13.01,2013-09-16 20:43:00,
2013-09-16 16:48:00,79.0,52.6,0.00,NW,313,2.7,5.8,40,0.00,,---,0.00,VWS V13.01,2013-09-16 20:48:00,
2013-09-16 16:53:00,79.3,53.6,0.00,NNE,21,2.2,5.8,41,0.00,,---,0.00,VWS V13.01,2013-09-16 20:53:00,
2013-09-16 16:58:00,79.3,53.0,0.00,North,357,2.7,5.8,40,0.00,,---,0.00,VWS V13.01,2013-09-16 20:58:00,
2013-09-16 17:03:00,79.2,52.8,0.00,North,353,3.1,4.9,40,0.00,,---,0.00,VWS V13.01,2013-09-16 21:03:00,
2013-09-16 17:08:00,79.0,53.3,0.00,North,0,0.0,4.9,41,0.00,,---,0.00,VWS V13.01,2013-09-16 21:08:00,
2013-09-16 17:13:00,78.8,53.1,0.00,North,0,0.0,4.9,41,0.00,,---,0.00,VWS V13.01,2013-09-16 21:13:00,
2013-09-16 17:18:00,78.4,53.5,0.00,North,0,0.0,4.9,42,0.00,,---,0.00,VWS V13.01,2013-09-16 21:18:00,
2013-09-16 17:23:00,77.9,53.0,0.00,NNE,18,0.0,4.0,42,0.00,,---,0.00,VWS V13.01,2013-09-16 21:23:00,
2013-09-16 17:28:00,77.7,53.5,0.00,NNE,18,0.0,4.0,43,0.00,,---,0.00,VWS V13.01,2013-09-16 21:28:00,
2013-09-16 17:33:00,77.5,53.3,0.00,NNE,18,0.0,4.0,43,0.00,,---,0.00,VWS V13.01,2013-09-16 21:33:00,
2013-09-16 17:38:00,77.2,53.6,0.00,NNE,18,0.0,4.0,44,0.00,,---,0.00,VWS V13.01,2013-09-16 21:38:00,
2013-09-16 17:43:00,77.0,55.8,0.00,NNE,18,0.0,0.0,48,0.00,,---,0.00,VWS V13.01,2013-09-16 21:43:00,
2013-09-16 17:48:00,76.5,57.0,0.00,NNE,18,0.0,0.0,51,0.00,,---,0.00,VWS V13.01,2013-09-16 21:48:00,
2013-09-16 17:53:00,76.1,57.2,0.00,NNE,18,0.0,0.0,52,0.00,,---,0.00,VWS V13.01,2013-09-16 21:53:00,
2013-09-16 17:58:00,75.9,57.6,0.00,NNE,18,0.0,0.0,53,0.00,,---,0.00,VWS V13.01,2013-09-16 21:58:00,
2013-09-16 18:04:00,75.7,57.9,0.00,NNE,18,0.0,0.0,54,0.00,,---,0.00,VWS V13.01,2013-09-16 22:04:00,
2013-09-16 18:09:00,75.6,58.3,0.00,NNE,18,0.0,0.0,55,0.00,,---,0.00,VWS V13.01,2013-09-16 22:09:00,
2013-09-16 18:14:00,75.4,58.6,0.00,NNE,18,0.0,0.0,56,0.00,,---,0.00,VWS V13.01,2013-09-16 22:14:00,
2013-09-16 18:19:00,75.2,58.9,0.00,NNE,18,0.0,0.0,57,0.00,,---,0.00,VWS V13.01,2013-09-16 22:19:00,
2013-09-16 18:24:00,75.0,59.3,0.00,NNE,18,0.0,0.0,58,0.00,,---,0.00,VWS V13.01,2013-09-16 22:24:00,
2013-09-16 18:29:00,74.8,59.1,0.00,NNE,18,0.0,0.0,58,0.00,,---,0.00,VWS V13.01,2013-09-16 22:29:00,
2013-09-16 18:34:00,74.7,59.4,0.00,NNE,18,0.0,0.0,59,0.00,,---,0.00,VWS V13.01,2013-09-16 22:34:00,
2013-09-16 18:39:00,74.5,58.8,0.00,NNE,18,0.0,0.0,58,0.00,,---,0.00,VWS V13.01,2013-09-16 22:39:00,
2013-09-16 18:44:00,74.3,58.1,0.00,NNE,18,0.0,0.0,57,0.00,,---,0.00,VWS V13.01,2013-09-16 22:44:00,
2013-09-16 18:49:00,74.3,58.1,0.00,NNE,18,0.0,0.0,57,0.00,,---,0.00,VWS V13.01,2013-09-16 22:49:00,
2013-09-16 18:54:00,74.1,57.9,0.00,NNE,18,0.0,0.0,57,0.00,,---,0.00,VWS V13.01,2013-09-16 22:54:00,
2013-09-16 18:59:00,73.9,57.8,0.00,NNE,18,0.0,0.0,57,0.00,,---,0.00,VWS V13.01,2013-09-16 22:59:00,
2013-09-16 19:04:00,73.9,58.2,0.00,NNE,18,0.0,0.0,58,0.00,,---,0.00,VWS V13.01,2013-09-16 23:04:00,
2013-09-16 19:09:00,73.8,58.1,0.00,NNE,18,0.0,0.0,58,0.00,,---,0.00,VWS V13.01,2013-09-16 23:09:00,
2013-09-16 19:14:00,73.8,58.1,0.00,NNE,18,0.0,0.0,58,0.00,,---,0.00,VWS V13.01,2013-09-16 23:14:00,
2013-09-16 19:19:00,73.6,57.9,0.00,North,357,0.0,0.0,58,0.00,,---,0.00,VWS V13.01,2013-09-16 23:19:00,
2013-09-16 19:24:00,73.4,57.7,0.00,North,357,0.0,0.0,58,0.00,,---,0.00,VWS V13.01,2013-09-16 23:24:00,
2013-09-16 19:29:00,73.4,57.7,0.00,North,357,0.0,0.0,58,0.00,,---,0.00,VWS V13.01,2013-09-16 23:29:00,
2013-09-16 19:34:00,73.2,57.6,0.00,North,5,0.0,0.0,58,0.00,,---,0.00,VWS V13.01,2013-09-16 23:34:00,
2013-09-16 19:39:00,73.2,57.6,0.00,North,5,0.0,0.0,58,0.00,,---,0.00,VWS V13.01,2013-09-16 23:39:00,
2013-09-16 19:45:00,73.0,57.4,0.00,North,5,0.0,0.0,58,0.00,,---,0.00,VWS V13.01,2013-09-16 23:45:00,
2013-09-16 19:50:00,73.0,57.4,0.00,North,5,0.0,0.0,58,0.00,,---,0.00,VWS V13.01,2013-09-16 23:50:00,
2013-09-16 19:55:00,73.0,57.4,0.00,North,5,0.0,0.0,58,0.00,,---,0.00,VWS V13.01,2013-09-16 23:55:00,
2013-09-16 20:00:00,72.9,58.2,0.00,North,5,0.0,0.0,60,0.00,,---,0.00,VWS V13.01,2013-09-17 00:00:00,
2013-09-16 20:05:00,72.7,58.5,0.00,North,5,0.0,0.0,61,0.00,,---,0.00,VWS V13.01,2013-09-17 00:05:00,
2013-09-16 20:10:00,72.3,59.0,0.00,North,5,0.0,0.0,63,0.00,,---,0.00,VWS V13.01,2013-09-17 00:10:00,
2013-09-16 20:15:00,72.1,59.3,0.00,North,5,0.0,0.0,64,0.00,,---,0.00,VWS V13.01,2013-09-17 00:15:00,
2013-09-16 20:20:00,72.1,59.3,0.00,North,5,0.0,0.0,64,0.00,,---,0.00,VWS V13.01,2013-09-17 00:20:00,
2013-09-16 20:25:00,72.1,59.3,0.00,North,5,0.0,0.0,64,0.00,,---,0.00,VWS V13.01,2013-09-17 00:25:00,
2013-09-16 20:30:00,72.0,58.2,0.00,NE,34,2.7,3.1,62,0.00,,---,0.00,VWS V13.01,2013-09-17 00:30:00,
2013-09-16 20:35:00,72.0,57.8,0.00,NE,36,4.9,4.9,61,0.00,,---,0.00,VWS V13.01,2013-09-17 00:35:00,
2013-09-16 20:40:00,71.8,54.3,0.00,NNE,31,0.0,0.0,54,0.00,,---,0.00,VWS V13.01,2013-09-17 00:40:00,
2013-09-16 20:46:00,71.8,54.8,0.00,NNE,32,2.2,3.6,55,0.00,,---,0.00,VWS V13.01,2013-09-17 00:46:00,
2013-09-16 20:51:00,71.6,54.6,0.00,NNE,32,0.0,3.6,55,0.00,,---,0.00,VWS V13.01,2013-09-17 00:51:00,
2013-09-16 20:56:00,71.6,54.1,0.00,North,3,0.0,3.6,54,0.00,,---,0.00,VWS V13.01,2013-09-17 00:56:00,
2013-09-16 21:01:00,71.4,53.9,0.00,North,2,2.2,3.6,54,0.00,,---,0.00,VWS V13.01,2013-09-17 01:01:00,
2013-09-16 21:06:00,71.2,53.2,0.00,North,5,0.0,3.6,53,0.00,,---,0.00,VWS V13.01,2013-09-17 01:06:00,
2013-09-16 21:11:00,71.1,53.1,0.00,NNE,23,0.0,4.0,53,0.00,,---,0.00,VWS V13.01,2013-09-17 01:11:00,
2013-09-16 21:16:00,71.1,53.1,0.00,NNE,26,2.7,4.0,53,0.00,,---,0.00,VWS V13.01,2013-09-17 01:16:00,
2013-09-16 21:21:00,70.9,52.4,0.00,NNE,14,0.0,0.0,52,0.00,,---,0.00,VWS V13.01,2013-09-17 01:21:00,
2013-09-16 21:26:00,70.7,52.2,0.00,North,0,0.0,3.1,52,0.00,,---,0.00,VWS V13.01,2013-09-17 01:26:00,
2013-09-16 21:31:00,70.5,52.1,0.00,North,0,0.0,3.1,52,0.00,,---,0.00,VWS V13.01,2013-09-17 01:31:00,
2013-09-16 21:36:00,70.3,50.8,0.00,North,357,3.6,4.0,50,0.00,,---,0.00,VWS V13.01,2013-09-17 01:36:00,
2013-09-16 21:41:00,70.2,50.1,0.00,NNE,28,2.7,3.6,49,0.00,,---,0.00,VWS V13.01,2013-09-17 01:41:00,
2013-09-16 21:46:00,70.0,50.0,0.00,NNE,23,2.2,4.9,49,0.00,,---,0.00,VWS V13.01,2013-09-17 01:46:00,
2013-09-16 21:51:00,69.8,49.8,0.00,NE,34,0.0,4.9,49,0.00,,---,0.00,VWS V13.01,2013-09-17 01:51:00,
2013-09-16 21:56:00,69.6,49.6,0.00,North,10,2.7,4.9,49,0.00,,---,0.00,VWS V13.01,2013-09-17 01:56:00,
2013-09-16 22:02:00,69.4,50.0,0.00,North,353,0.0,3.1,50,0.00,,---,0.00,VWS V13.01,2013-09-17 02:02:00,
2013-09-16 22:07:00,69.3,49.8,0.00,NNW,343,0.0,4.0,50,0.00,,---,0.00,VWS V13.01,2013-09-17 02:07:00,
2013-09-16 22:12:00,69.1,49.7,0.00,NNE,28,2.7,4.0,50,0.00,,---,0.00,VWS V13.01,2013-09-17 02:12:00,
2013-09-16 22:17:00,68.9,50.0,0.00,NNE,28,0.0,4.0,51,0.00,,---,0.00,VWS V13.01,2013-09-17 02:17:00,
2013-09-16 22:22:00,68.7,50.4,0.00,NNE,28,0.0,0.0,52,0.00,,---,0.00,VWS V13.01,2013-09-17 02:22:00,
2013-09-16 22:27:00,68.5,50.8,0.00,NNE,28,2.2,3.1,53,0.00,,---,0.00,VWS V13.01,2013-09-17 02:27:00,
2013-09-16 22:32:00,68.4,51.1,0.00,NNE,28,0.0,3.6,54,0.00,,---,0.00,VWS V13.01,2013-09-17 02:32:00,
2013-09-16 22:37:00,68.2,51.4,0.00,NNE,28,2.7,3.6,55,0.00,,---,0.00,VWS V13.01,2013-09-17 02:37:00,
2013-09-16 22:42:00,68.2,52.4,0.00,North,10,0.0,0.0,57,0.00,,---,0.00,VWS V13.01,2013-09-17 02:42:00,
2013-09-16 22:47:00,68.0,52.2,0.00,North,353,0.0,3.6,57,0.00,,---,0.00,VWS V13.01,2013-09-17 02:47:00,
2013-09-16 22:52:00,68.0,52.7,0.00,North,357,0.0,3.6,58,0.00,,---,0.00,VWS V13.01,2013-09-17 02:52:00,
2013-09-16 22:57:00,68.2,52.9,0.00,NW,312,0.0,3.6,58,0.00,,---,0.00,VWS V13.01,2013-09-17 02:57:00,
2013-09-16 23:02:00,68.2,52.9,0.00,NNE,17,0.0,0.0,58,0.00,,---,0.00,VWS V13.01,2013-09-17 03:02:00,
2013-09-16 23:07:00,68.0,52.7,0.00,NE,36,0.0,3.6,58,0.00,,---,0.00,VWS V13.01,2013-09-17 03:07:00,
2013-09-16 23:12:00,67.8,52.5,0.00,NE,36,0.0,3.6,58,0.00,,---,0.00,VWS V13.01,2013-09-17 03:12:00,
2013-09-16 23:17:00,67.8,53.0,0.00,NE,36,0.0,3.6,59,0.00,,---,0.00,VWS V13.01,2013-09-17 03:17:00,
2013-09-16 23:22:00,67.5,52.7,0.00,NE,36,0.0,0.0,59,0.00,,---,0.00,VWS V13.01,2013-09-17 03:22:00,
2013-09-16 23:27:00,67.3,52.9,0.00,NE,36,0.0,0.0,60,0.00,,---,0.00,VWS V13.01,2013-09-17 03:27:00,
2013-09-16 23:32:00,66.9,53.0,0.00,NE,36,0.0,0.0,61,0.00,,---,0.00,VWS V13.01,2013-09-17 03:32:00,
2013-09-16 23:37:00,66.7,53.3,0.00,NE,36,0.0,0.0,62,0.00,,---,0.00,VWS V13.01,2013-09-17 03:37:00,
2013-09-16 23:43:00,66.6,53.2,0.00,NE,36,0.0,0.0,62,0.00,,---,0.00,VWS V13.01,2013-09-17 03:43:00,
2013-09-16 23:48:00,66.4,53.4,0.00,NE,36,0.0,0.0,63,0.00,,---,0.00,VWS V13.01,2013-09-17 03:48:00,
2013-09-16 23:53:00,66.2,53.7,0.00,NE,36,0.0,0.0,64,0.00,,---,0.00,VWS V13.01,2013-09-17 03:53:00,
2013-09-16 23:58:00,65.8,53.8,0.00,NE,36,0.0,0.0,65,0.00,,---,0.00,VWS V13.01,2013-09-17 03:58:00,